Location: ???????
(56.2167°N, 38.0500°E)
Time: 03:22:46
(UTC+00:00)

Cosmos 2237 Rocket - Pass Details

Date: 19 May 2025
Orbit: 834 x 849 km, 71.0° (Epoch: 19 June)

Event Time Altitude Azimuth Distance (km) Brightness Sun altitude
Rises 21:57:34 0° 323° (NW) 3,400 6.1 -13.5°
Reaches altitude 10° 22:00:07 10° 329° (NNW) 2,464 5.4 -13.4°
Maximum altitude 22:05:35 48° 44° (NE) 1,097 3.2 -13.3°
Drops below altitude 10° 22:11:02 10° 118° (ESE) 2,462 4.5 -13.2°
Sets 22:13:34 0° 124° (SE) 3,396 5.1 -13.1°
